Regional Weather Roundup
Issued by NWS

Home | Current Version | Previous Version | Graphics & Text | Print | Product List | Glossary On
Versions: 1 2 3 4 5 6 7 8 9 10 11 12 13 14 15 16 17 18 19 20 21 22 23 24 25 26 27 28 29 30 31 32 33 34 35 36 37 38 39 40 41 42 43 44 45 46 47 48 49 50
000
ASUS43 KDMX 021301
RWRIA

WEATHER ROUNDUP FOR IOWA
NATIONAL WEATHER SERVICE DES MOINES IA
700 AM CST FRI DEC 02 2016

NOTE: "FAIR" INDICATES FEW OR NO CLOUDS BELOW 12,000 FEET WITH NO
SIGNIFICANT WEATHER AND/OR OBSTRUCTIONS TO VISIBILITY.

* - THESE STATIONS ARE NOT NWS STATIONS...THUS NOT UNDER NWS
QUALITY CONTROL.  THEY ALSO DO NOT REPORT WEATHER SUCH
AS PRECIPITATION OR FOG.

IAZ001>003-012>014-020>022-031>034-043>046-021400-
   NORTHWEST IOWA

CITY           SKY/WX    TMP DP  RH WIND       PRES   REMARKS
CARROLL *      CLOUDY    34  32  93 NW6       30.18R WCI  29
CHEROKEE *     CLOUDY    33  33 100 CALM      30.18R
DENISON *      MIX PCPN  32  32 100 NW5       30.17R WCI  27
LE MARS *      CLOUDY    34  32  93 NW5       30.20R WCI  30
ORANGE CITY *  CLOUDY    34  34 100 CALM      30.17R
SHELDON *      LGT SNOW  32  32 100 N7        30.16R WCI  26
SIOUX CITY     CLOUDY    34  31  88 W5        30.20R WCI  30
SPENCER        CLOUDY    32  29  88 NW9       30.18R WCI  24
STORM LAKE *   CLOUDY    32  32 100 NW6       30.17R WCI  26
$$

IAZ055>058-069>071-079>083-090>094-021400-
   SOUTHWEST IOWA

CITY           SKY/WX    TMP DP  RH WIND       PRES   REMARKS
ATLANTIC *     CLOUDY    32  30  93 CALM      30.19S
AUDUBON *      CLOUDY    32  28  86 CALM      30.19R
CLARINDA *       N/A     23  23 100 CALM      30.23R
COUNCIL BLFS * CLEAR     30  28  93 NW5       30.20R WCI  25
CRESTON *        N/A     30  28  93 W5        30.20R WCI  25
HARLAN  *      CLOUDY    32  32 100 NW6       30.23R WCI  26
LAMONI         CLEAR     27  24  89 W6        30.19R WCI  20
RED OAK *      PTCLDY    27  27 100 CALM      30.22R
SHENANDOAH *   CLEAR     23  23 100 CALM      30.23R
$$

IAZ047>049-059>061-072>074-084-021400-
   CENTRAL IOWA

CITY           SKY/WX    TMP DP  RH WIND       PRES   REMARKS
AMES           CLOUDY    35  33  92 N5        30.18R WCI  31
ANKENY *       CLOUDY    36  36 100 W5        30.20R WCI  32
BOONE *        CLOUDY    34  34 100 NW6       30.16R WCI  29
CHARITON *       N/A     32  30  93 W6        30.18R WCI  26
DES MOINES     CLOUDY    35  31  85 W6        30.19R WCI  30
GRINNELL*      CLOUDY    34  32  93 NW6       30.18R WCI  29
KNOXVILLE *    CLOUDY    34  30  86 W5        30.17R WCI  30
MARSHALLTOWN   CLOUDY    34  33  96 NW8       30.16R WCI  27
NEWTON *       CLOUDY    34  32  93 W6        30.17R WCI  29
PELLA *        CLOUDY    35  32  88 W6        30.19R WCI  30
PERRY *        CLOUDY    34  33  97 W6        30.18R WCI  29
$$

IAZ004>006-015-016-023>025-035-036-021400-
   NORTH CENTRAL IOWA

CITY           SKY/WX    TMP DP  RH WIND       PRES   REMARKS
ALGONA *       CLOUDY    32  28  86 N8        30.17R WCI  25
CLARION *      CLOUDY    32  32 100 N7G14     30.17R WCI  26
ESTHERVILLE    CLOUDY    30  28  92 N8        30.17R WCI  22
FORT DODGE *   CLOUDY    34  28  80 N3        30.18R
MASON CITY     CLOUDY    31  26  82 NW9       30.17R WCI  23
WEBSTER CITY * CLOUDY    34  34 100 N8        30.15S WCI  27
IOWA FALLS *   CLOUDY    33  31  91 NW5       30.17R WCI  29
$$

IAZ007>011-017>019-026>030-037>042-050>054-066-021400-
   NORTHEAST IOWA

CITY           SKY/WX    TMP DP  RH WIND       PRES   REMARKS
CEDAR RAPIDS   CLOUDY    34  34 100 W8        30.15R WCI  27
CHARLES CITY * MOCLDY    32  28  86 NW12      30.15R WCI  23
CLINTON *      CLOUDY    35  34  96 W9        30.14R WCI  28
DECORAH *      CLOUDY    32  25  74 NW7       30.12R WCI  26
DUBUQUE        MOCLDY    33  32  96 W7        30.12R WCI  27
MONTICELLO *   CLOUDY    36  34  93 NW8       30.13R WCI  29
OELWEIN *      CLOUDY    32  28  86 NW12      30.14R WCI  23
WATERLOO       CLOUDY    33  27  78 NW7       30.16R WCI  27
$$

IAZ064-065-067-068-078-021400-
   EAST CENTRAL IOWA

CITY           SKY/WX    TMP DP  RH WIND       PRES   REMARKS
DAVENPORT      CLOUDY    35  33  92 W9        30.15R WCI  28
IOWA CITY      CLOUDY    36  32  85 W7        30.18R WCI  30
MUSCATINE *    CLOUDY    37  32  81 W7        30.18R WCI  32
QUAD CITIES    CLOUDY    38  32  79 W8        30.15R WCI  32
$$

IAZ062-063-075>077-085>089-095>099-021400-
   SOUTHEAST IOWA

CITY           SKY/WX    TMP DP  RH WIND       PRES   REMARKS
BURLINGTON     CLOUDY    36  31  82 W6        30.17R WCI  31
FAIRFIELD *    CLOUDY    36  30  80 W6        30.17S WCI  31
FORT MADISON * CLOUDY    36  30  80 W5        30.19R WCI  32
KEOKUK *       CLOUDY    36  30  80 SW6       30.19R WCI  31
OSKALOOSA *    MOCLDY    32  31  95 W6        30.19R WCI  27
CENTERVILLE *  MOCLDY    28  27  93 W7        30.20R WCI  21
OTTUMWA        CLOUDY    35  30  82 W5        30.17S WCI  31
WASHINGTON *   CLOUDY    36  32  87 W7        30.18S WCI  30
$$

ABBREVIATIONS USED IN REMARKS
   TC - TEMPERATURES IN CELSIUS
  WCI - WIND CHILL INDEX
   HX - HEAT INDEX
  VSB - VISIBILITY
$$




USA.gov is the U.S. government's official web portal to all federal, state and local government web resources and services.